Raleigh-Durham Airport, NC

5:17 PM EDT on May 21, 2018 (GMT -0400)
Raleigh-Durham International

Weather History for KRDU - November, 2014

Change the Weather History Date:

Tuesday, November 11, 2014

  Actual Average Record
Temperature  
Mean Temperature 59 °F 54 °F  
Max Temperature 72 °F 65 °F 80 °F (2006)
Min Temperature 45 °F 42 °F 22 °F (1957)
Degree Days  
Heating Degree Days 6 12  
Month to date heating degree days 149 114  
Since 1 July heating degree days 277 303  
Cooling Degree Days 0 0  
Month to date cooling degree days 0 1  
Year to date cooling degree days 1656 1721  
Growing Degree Days 8 (Base 50)    
Moisture  
Dew Point 50 °F    
Average Humidity 77    
Maximum Humidity 93    
Minimum Humidity 61    
Precipitation  
Precipitation 0.00 in 0.10 in 2.97 in (2009)
Month to date precipitation 0.82 1.16  
Year to date precipitation 47.32 38.31  
Sea Level Pressure  
Sea Level Pressure 29.99 in    
Wind  
Wind Speed 4 mph (NNE)    
Max Wind Speed 13 mph    
Max Gust Speed 16 mph    
Visibility 7 miles    
Events Fog    
T = Trace of Precipitation, MM = Missing Value Source: NWS Daily Summary

Daily Weather History Graph

Daily Weather History Graph

Search for Another Location

Airport or City:

Astronomy

Nov. 11, 2014 Rise Set
Actual Time 6:47 AM EST 5:10 PM EST
Civil Twilight 6:20 AM EST 5:37 PM EST
Nautical Twilight 5:49 AM EST 6:08 PM EST
Astronomical Twilight 5:19 AM EST 6:38 PM EST
Moon 9:32 PM EST (11/11) 10:52 AM EST (11/11)
Length of Visible Light 11h 17m
Length of Day
10h 23m
Waning Gibbous, 77% of the Moon is Illuminated
Nov 11
Waning Gibbous
Nov 14
Last Quarter
Nov 22
New
Nov 29
First Quarter
Dec 6
Full

Hourly Weather History & Observations

Time (EST) Temp. Windchill Dew Point Humidity Pressure Visibility Wind Dir Wind Speed Gust Speed Precip Events Conditions
12:51 AM 46.0 °F 43.9 °F 43.0 °F 89% 30.06 in 10.0 mi NNE 4.6 mph - N/A   Partly Cloudy
1:51 AM 46.0 °F 44.8 °F 43.0 °F 89% 30.04 in 10.0 mi North 3.5 mph - N/A   Partly Cloudy
2:51 AM 45.0 °F 43.5 °F 42.1 °F 90% 30.03 in 8.0 mi NNE 3.5 mph - N/A   Partly Cloudy
3:51 AM 46.0 °F 44.8 °F 43.0 °F 89% 30.04 in 6.0 mi NNE 3.5 mph - N/A   Scattered Clouds
4:51 AM 46.0 °F - 43.0 °F 89% 30.03 in 6.0 mi Calm Calm - N/A   Scattered Clouds
5:51 AM 46.9 °F - 44.1 °F 90% 30.03 in 5.0 mi NNE 4.6 mph - N/A   Scattered Clouds
6:51 AM 46.9 °F - 45.0 °F 93% 30.04 in 3.0 mi NNE 5.8 mph - N/A   Mostly Cloudy
7:42 AM 50.0 °F - 46.4 °F 87% 30.04 in 6.0 mi NNE 9.2 mph - N/A   Mostly Cloudy
7:51 AM 51.1 °F - 46.9 °F 86% 30.04 in 3.0 mi NE 6.9 mph - N/A   Mostly Cloudy
8:01 AM 50.0 °F - 46.4 °F 87% 30.05 in 2.0 mi NNE 5.8 mph - N/A   Mostly Cloudy
8:51 AM 52.0 °F - 48.0 °F 86% 30.05 in 2.0 mi North 5.8 mph - N/A   Overcast
9:05 AM 51.8 °F - 48.2 °F 88% 30.05 in 5.0 mi North 6.9 mph - N/A   Mostly Cloudy
9:22 AM 53.6 °F - 48.2 °F 82% 30.04 in 7.0 mi North 8.1 mph - N/A   Mostly Cloudy
9:36 AM 53.6 °F - 48.2 °F 82% 30.04 in 8.0 mi Variable 6.9 mph - N/A   Overcast
9:51 AM 55.9 °F - 50.0 °F 80% 30.05 in 10.0 mi NNE 8.1 mph - N/A   Mostly Cloudy
10:51 AM 57.9 °F - 48.9 °F 72% 30.02 in 10.0 mi NNE 6.9 mph - N/A   Mostly Cloudy
11:29 AM 60.8 °F - 50.0 °F 68% 30.01 in 10.0 mi NNE 8.1 mph - N/A   Mostly Cloudy
11:51 AM 63.0 °F - 51.1 °F 65% 29.99 in 10.0 mi NNE 6.9 mph - N/A   Mostly Cloudy
12:51 PM 66.9 °F - 54.0 °F 63% 29.95 in 10.0 mi NE 8.1 mph - N/A   Mostly Cloudy
1:51 PM 70.0 °F - 55.9 °F 61% 29.93 in 10.0 mi NNE 5.8 mph - N/A   Mostly Cloudy
2:51 PM 71.1 °F - 57.0 °F 61% 29.91 in 10.0 mi ENE 5.8 mph - N/A   Scattered Clouds
3:51 PM 71.1 °F - 57.9 °F 63% 29.91 in 10.0 mi ENE 5.8 mph - N/A   Scattered Clouds
4:51 PM 68.0 °F - 57.9 °F 70% 29.92 in 10.0 mi Calm Calm - N/A   Scattered Clouds
5:51 PM 61.0 °F - 57.0 °F 87% 29.93 in 10.0 mi East 3.5 mph - N/A   Scattered Clouds
6:51 PM 59.0 °F - 55.9 °F 90% 29.94 in 10.0 mi Calm Calm - N/A   Partly Cloudy
7:51 PM 57.0 °F - 54.0 °F 89% 29.94 in 10.0 mi Calm Calm - N/A   Partly Cloudy
8:51 PM 55.9 °F - 54.0 °F 93% 29.94 in 7.0 mi Calm Calm - N/A Fog Patches of Fog
9:51 PM 54.0 °F - 52.0 °F 93% 29.93 in 6.0 mi Calm Calm - N/A Fog Patches of Fog
10:17 PM 53.6 °F - 51.8 °F 94% 29.93 in 0.5 mi Calm Calm - N/A Fog Fog
10:51 PM 53.1 °F - 52.0 °F 96% 29.92 in 0.2 mi Calm Calm - N/A Fog Fog
11:04 PM 53.6 °F - 51.8 °F 94% 29.93 in 0.1 mi Calm Calm - N/A Fog Fog
11:32 PM 51.8 °F - 50.0 °F 94% 29.94 in 0.2 mi Calm Calm - N/A Fog Fog
11:51 PM 52.0 °F - 50.0 °F 93% 29.93 in 0.2 mi Calm Calm - N/A Fog Fog